Theta_e
320 320 319 319 319 318 318 318 318 318 319 320 321 321 320 318 319 320 312 317 317 326 328 319 317 316 315 313 315 314 305 303 305 304 306 311 309 314 316 314 316 323 330 341 349
319 319 319 319 318 318 318 318 318 318 318 319 320 320 320 319 318 314 324 325 329 331 319 314 312 313 310 310 312 309 305 305 308 309 307 309 310 311 311 312 314 319 327 341 348
319 319 319 318 318 318 317 317 317 318 318 318 318 320 320 320 313 310 327 328 331 330 318 316 314 312 308 310 310 309 305 308 308 310 310 310 310 312 310 310 315 315 317 330 342
317 318 318 318 317 317 317 317 317 318 317 317 318 320 320 320 302 318 328 334 336 321 315 312 311 307 306 305 310 305 309 309 309 311 310 309 311 310 311 313 317 318 318 318 334
316 317 317 317 317 316 316 316 316 316 316 316 317 320 319 310 308 323 335 333 318 315 311 310 308 308 304 306 307 306 307 309 310 310 309 310 308 309 311 315 317 317 318 319 321
315 316 316 316 315 315 315 316 315 315 315 315 317 320 314 303 313 324 326 319 316 313 312 313 310 310 306 305 305 307 307 307 308 309 309 307 308 310 312 315 316 316 317 322 331
315 316 315 315 314 314 315 315 314 315 315 316 318 319 310 308 318 324 323 319 316 315 312 314 311 308 308 305 309 308 304 307 308 309 308 310 305 307 313 314 314 316 317 317 328
315 315 314 314 314 314 314 314 316 318 316 317 320 318 306 315 318 318 319 316 317 316 313 314 312 310 309 310 307 304 305 301 307 307 308 307 302 309 313 312 312 315 316 316 318
315 315 314 314 314 314 313 314 320 318 319 320 319 314 307 315 312 316 320 313 314 315 313 312 311 309 309 304 303 304 299 301 302 307 306 306 303 309 313 312 312 314 316 315 317
315 314 313 314 314 313 313 314 321 321 321 320 318 310 313 309 316 316 317 316 311 311 310 309 308 305 305 303 297 299 299 300 300 304 305 304 304 308 311 311 311 313 314 315 318
315 314 313 313 313 313 314 319 314 313 314 308 307 307 309 313 316 314 316 314 313 311 305 308 303 300 303 304 304 301 300 299 302 304 302 303 303 306 310 311 311 312 314 317 321
314 314 313 313 313 312 316 310 309 310 303 309 308 308 311 312 306 311 317 308 308 304 307 304 300 305 305 304 302 302 300 299 301 304 303 303 303 307 309 309 312 314 316 319 322
313 312 312 312 312 314 313 310 315 312 305 306 307 307 308 310 305 306 313 311 305 304 304 301 303 306 304 302 301 301 299 299 299 303 305 303 302 304 308 312 314 316 319 321 323
312 312 311 310 312 315 313 316 316 313 302 301 304 306 309 309 304 311 312 310 308 304 305 304 307 302 302 301 302 298 303 301 301 300 296 304 295 303 307 309 312 315 318 322 325
312 311 311 309 315 312 314 316 315 311 291 301 303 312 309 305 306 307 311 309 304 305 306 302 302 302 301 302 304 300 304 303 302 301 300 300 297 303 306 305 309 315 320 323 326
311 310 309 313 317 316 316 315 313 299 290 298 302 302 303 305 304 307 306 310 309 306 306 305 306 304 303 304 304 305 303 303 303 301 294 299 298 299 303 308 310 316 319 321 323
310 309 309 315 311 316 316 312 299 293 299 295 296 300 300 299 302 302 300 302 300 297 298 302 301 302 302 301 304 304 301 294 292 292 291 301 298 301 308 311 313 315 317 319 321
307 306 311 315 317 315 314 305 292 294 294 298 298 299 296 299 299 301 299 299 301 301 300 297 293 298 300 300 300 302 301 295 289 291 294 300 294 302 310 314 316 316 316 316 316
305 317 319 316 316 314 308 299 295 295 296 296 299 295 295 298 298 299 299 297 298 302 296 296 295 298 298 300 300 299 296 300 297 298 294 298 302 306 310 310 312 313 311 311 313
309 312 313 316 317 313 306 294 297 298 298 298 293 295 293 295 295 297 297 299 297 301 305 298 293 296 298 299 300 298 301 293 295 287 287 293 296 299 305 306 307 307 308 310 311
311 306 312 316 316 309 299 297 297 300 300 296 295 294 295 293 295 295 295 299 299 300 302 301 298 296 298 297 296 298 296 296 297 294 288 288 293 307 304 305 306 306 306 308 311
309 302 313 316 304 304 298 298 296 299 301 298 298 297 295 295 294 294 294 296 299 299 296 301 299 294 296 299 300 299 298 299 293 290 294 293 292 306 303 302 303 303 305 307 308
304 305 313 312 297 298 299 297 299 297 297 297 296 297 298 295 292 293 294 298 299 298 297 300 295 291 291 294 296 295 297 297 298 298 293 288 292 300 301 301 303 303 305 306 306
305 300 305 306 305 299 296 296 295 299 297 297 296 297 296 294 296 293 293 296 298 298 298 298 295 292 288 290 293 290 292 294 295 291 292 292 293 298 298 299 302 304 305 306 306
306 301 301 298 299 299 298 296 293 294 298 298 296 295 294 292 294 293 295 296 298 298 298 298 291 293 293 292 292 292 291 292 291 292 289 292 291 294 297 299 301 303 303 304 304
302 301 304 302 299 297 294 295 293 293 295 294 294 294 295 293 294 292 294 295 295 298 297 298 292 293 290 292 291 289 292 292 292 292 292 292 291 298 300 301 301 302 302 303 304
308 307 303 297 297 296 298 295 294 295 297 296 295 294 294 295 298 299 299 299 299 296 296 296 293 291 287 290 290 286 291 292 293 294 292 288 294 299 298 299 301 302 303 303 303
Wind_Speed
17 17 17 16 15 15 15 15 14 13 12 11 10 9 7 8 11 10 11 1 4 12 6 12 13 10 9 8 7 5 9 12 14 9 7 5 6 3 5 11 5 2 5 6 8
19 19 18 18 17 15 15 14 14 13 12 11 10 9 8 7 13 16 4 6 5 13 15 17 16 14 12 11 8 12 11 13 2 6 6 4 4 6 9 8 9 5 8 3 8
21 21 20 20 20 17 17 16 15 14 12 11 10 9 8 10 10 3 3 10 9 13 13 10 12 14 12 9 12 11 15 6 6 9 6 7 8 7 11 12 11 4 5 5 8
21 22 22 21 21 19 19 17 15 14 12 11 10 9 7 10 4 7 8 9 13 17 11 11 13 13 13 12 13 11 12 9 5 7 10 9 7 11 11 14 9 10 11 7 11
23 22 23 22 21 20 19 19 17 15 13 10 8 8 7 8 6 6 10 10 16 15 16 14 14 13 13 12 9 16 10 8 10 9 10 10 12 13 12 13 8 8 7 7 10
23 23 23 23 22 21 20 17 17 15 12 9 7 5 9 10 5 4 11 15 13 16 15 13 8 10 9 10 14 4 15 10 8 10 9 12 13 8 12 8 11 7 5 6 3
23 23 23 24 23 22 19 18 17 15 11 9 8 7 8 10 3 6 10 15 11 12 11 11 5 10 4 8 8 7 10 13 13 12 11 10 15 16 14 6 11 9 6 3 6
24 23 25 25 24 22 20 19 15 4 6 8 10 7 7 4 3 7 11 9 8 6 4 6 8 12 11 4 7 12 10 14 7 9 10 11 12 14 6 7 11 10 7 5 2
24 23 23 23 23 20 17 16 4 8 10 11 8 7 2 5 6 11 12 11 11 8 4 6 11 8 9 13 11 11 12 11 8 8 5 15 11 7 9 7 8 11 8 5 2
27 25 24 23 22 17 13 6 7 12 8 4 2 6 4 4 4 5 10 8 11 13 9 10 10 11 13 14 13 11 13 9 10 8 10 11 12 8 10 8 9 5 5 3 3
29 27 26 24 20 12 7 6 6 7 7 9 11 8 11 9 8 8 9 13 10 15 16 15 12 14 16 15 14 6 8 8 6 3 8 14 13 11 10 12 13 6 1 4 8
29 29 27 25 21 8 7 6 7 6 8 3 4 4 5 7 6 6 9 15 14 17 18 10 18 15 7 8 9 11 12 12 6 7 10 8 12 12 11 4 2 1 5 7 10
28 29 29 24 18 6 7 8 7 3 8 2 2 4 6 2 2 5 13 16 17 19 17 18 2 7 11 12 14 13 13 10 10 8 10 8 14 11 9 9 7 7 6 8 11
28 27 26 27 6 6 3 12 9 6 7 6 4 6 3 3 5 4 10 12 13 20 19 18 16 6 11 14 14 15 12 12 10 10 11 13 11 15 15 10 6 7 8 9 11
28 27 23 12 8 7 10 11 3 5 5 6 6 5 3 6 8 5 1 15 17 15 15 14 14 14 13 13 12 13 9 13 13 12 14 13 10 7 13 11 5 7 9 11 11
30 27 23 4 5 8 12 7 5 8 3 2 3 10 9 11 5 2 3 7 6 15 12 15 3 3 6 1 8 4 8 11 11 12 16 17 13 12 12 8 5 7 9 10 12
31 27 12 5 9 15 11 6 7 4 1 4 7 9 5 7 9 8 2 3 7 13 17 15 8 3 2 10 8 11 12 10 13 13 14 15 16 3 7 9 7 7 8 9 10
32 25 6 4 11 10 8 7 5 3 4 3 7 7 4 10 4 6 2 2 5 8 12 16 12 5 3 5 9 13 14 13 15 13 13 8 10 9 8 8 8 7 6 8 10
29 3 2 10 10 7 8 3 6 4 5 9 9 6 3 3 7 6 3 3 6 12 5 6 6 4 4 6 4 8 11 8 11 8 11 6 8 7 7 8 6 7 6 8 9
8 4 5 15 8 7 3 5 1 4 6 5 6 2 6 8 8 6 3 6 2 6 9 3 4 4 2 4 5 4 3 5 4 7 13 11 8 2 13 9 7 5 4 6 6
6 4 9 16 6 1 3 5 0 3 6 5 5 8 6 8 6 9 4 6 7 6 6 6 6 7 5 9 5 7 8 5 5 8 7 7 2 7 6 6 0 4 6 8 8
6 2 9 11 2 2 4 3 2 2 2 3 5 5 4 6 8 5 5 5 9 6 7 3 5 10 12 8 7 11 12 14 11 15 11 13 4 5 6 4 3 7 6 9 9
7 4 5 10 4 4 2 1 1 2 3 2 2 2 2 4 5 3 4 3 6 4 5 1 4 8 10 9 8 10 9 13 15 14 17 12 1 7 6 4 4 4 5 7 8
6 3 3 5 3 4 3 2 1 1 1 2 3 4 5 6 4 5 5 0 5 4 5 4 7 10 11 8 7 4 7 8 10 11 15 16 7 9 7 2 1 2 4 5 6
2 5 4 4 4 4 3 1 3 1 2 3 4 3 4 6 7 9 6 8 8 1 4 5 11 6 10 7 8 10 9 9 11 11 11 9 7 6 7 2 2 2 4 7 8
6 4 3 2 3 5 3 2 4 1 3 2 7 2 5 7 7 13 11 9 7 3 5 4 7 6 12 4 9 11 12 12 13 12 12 11 13 11 5 5 6 5 5 9 10
2 1 5 5 2 5 2 1 1 4 2 3 3 6 8 7 8 10 8 10 10 8 7 7 8 7 11 2 10 14 15 17 16 13 10 11 3 4 5 5 6 8 10 11 11
Wind_Direction
353 350 347 344 341 339 339 335 332 327 320 315 309 299 288 291 275 215 247 192 163 151 221 168 186 189 198 202 220 243 243 244 237 246 230 155 255 263 295 268 272 309 337 18 136
351 348 344 342 339 336 333 329 326 324 318 312 309 304 292 292 267 260 158 141 140 168 177 171 178 183 199 212 203 223 235 251 323 287 251 198 244 292 285 248 260 208 124 115 169
347 345 342 340 336 333 330 327 321 320 315 310 308 305 294 288 270 118 162 161 191 200 189 192 171 190 210 207 207 216 252 269 217 254 254 281 262 247 262 261 233 289 320 174 197
344 341 340 337 333 330 326 323 317 313 310 304 305 303 299 253 311 86 130 152 174 196 183 185 187 201 218 212 214 252 236 250 249 222 250 252 288 259 250 260 301 303 300 262 207
343 337 336 333 330 327 323 320 313 307 299 287 282 283 253 230 264 81 155 147 163 191 196 193 196 211 223 222 214 235 251 245 244 241 251 264 251 255 254 256 271 287 286 253 229
338 333 331 331 330 327 322 313 305 296 283 264 242 243 244 255 73 105 157 166 177 190 197 205 217 221 276 231 221 223 240 241 236 237 228 244 247 234 240 240 266 263 269 246 223
331 330 330 332 330 326 320 315 307 288 257 235 211 223 250 270 52 139 163 186 187 200 194 213 244 204 214 216 228 226 238 220 232 236 233 231 245 229 247 257 255 252 259 261 226
330 330 332 332 330 326 325 325 319 286 192 190 198 224 264 96 241 199 180 176 198 201 265 216 222 235 234 95 196 229 239 249 183 216 219 223 246 204 166 247 252 244 258 275 299
332 332 330 330 329 326 324 323 17 98 139 161 193 239 260 135 217 204 195 185 174 194 208 184 194 221 187 214 211 203 251 213 159 207 186 214 247 169 189 235 254 260 256 273 305
334 336 334 333 331 327 317 286 112 153 165 214 255 230 194 59 111 149 192 184 173 172 176 188 206 215 223 215 226 225 218 223 252 155 225 214 246 235 233 232 238 250 265 305 11
336 337 336 338 337 331 283 212 227 167 219 315 322 289 296 298 201 213 179 196 194 193 204 199 219 219 218 223 268 264 262 257 235 238 254 249 254 245 227 223 231 207 213 1 358
336 337 339 339 336 329 269 42 56 322 304 327 295 292 308 276 266 172 186 195 201 212 210 179 228 235 232 227 234 233 237 239 255 229 224 224 242 233 222 179 60 19 39 5 350
336 338 336 334 323 272 6 38 328 237 259 20 37 345 15 226 237 244 206 209 206 219 201 227 132 233 218 207 223 228 237 230 257 160 236 259 239 212 132 143 113 65 40 21 4
335 337 335 328 294 353 45 346 327 207 264 42 40 57 0 324 210 330 218 219 214 228 219 236 249 220 217 224 219 236 212 243 225 225 245 196 260 182 161 145 92 49 34 23 15
333 334 333 329 321 341 340 329 308 213 250 27 23 329 313 359 337 99 234 220 241 218 215 220 225 219 228 237 225 253 223 222 233 242 258 200 254 189 151 163 70 54 50 41 32
332 332 328 202 237 347 328 319 217 231 103 39 7 354 349 25 38 342 224 234 271 246 221 250 116 276 298 356 247 255 225 236 241 246 236 237 214 238 178 105 106 81 63 50 42
331 328 310 309 338 324 316 233 246 293 80 32 345 339 340 2 27 24 13 194 264 214 216 200 179 148 315 238 206 219 226 225 217 224 243 238 223 242 86 94 95 92 79 60 44
330 320 166 293 327 317 282 249 257 56 14 9 328 312 18 9 41 6 277 176 55 282 279 221 180 230 31 273 296 219 244 250 255 246 233 142 218 105 111 115 105 86 67 57 46
315 322 272 356 335 295 270 271 27 17 356 338 305 284 164 22 323 316 12 356 27 5 288 252 184 141 65 38 274 178 231 356 291 277 279 214 113 148 151 146 151 127 80 55 42
319 292 37 344 331 267 268 52 58 25 335 314 305 323 313 344 313 334 288 63 37 11 343 55 255 205 112 238 94 301 64 217 228 276 264 261 257 189 173 150 137 118 65 41 23
274 280 24 343 269 290 27 57 357 63 341 321 324 299 314 325 315 316 304 83 10 327 312 303 268 171 211 209 250 179 194 229 277 231 247 264 270 11 121 95 219 41 16 6 338
299 296 11 330 71 20 34 358 354 321 347 303 287 296 300 317 301 292 297 338 355 300 294 35 294 266 255 31 289 266 271 280 250 229 239 261 231 126 117 102 54 60 39 36 13
327 325 19 312 19 41 69 185 291 330 5 317 274 308 319 302 290 276 297 18 358 313 343 145 211 250 208 200 203 245 234 242 257 275 256 243 195 142 130 116 73 32 26 28 5
295 315 94 62 64 342 358 86 240 89 206 294 307 260 275 258 223 281 275 314 340 1 13 294 276 281 292 7 328 268 236 232 239 245 254 249 216 219 181 279 322 17 4 360 358
326 66 14 350 57 353 301 314 290 235 220 255 195 282 297 282 285 266 293 281 242 146 236 270 259 249 269 291 280 278 264 234 239 262 271 299 297 269 307 311 278 322 332 329 333
315 320 163 319 284 273 141 147 294 334 282 208 276 306 287 279 302 304 307 274 282 241 247 206 263 286 276 242 268 273 263 255 260 258 260 265 271 272 70 251 258 281 305 313 320
50 168 281 118 201 273 56 57 214 310 217 298 322 297 279 316 322 301 293 286 285 288 276 258 265 247 271 156 282 267 262 255 245 241 257 251 20 97 207 262 297 305 309 311 327